Bodensee (Kressbronn): 6,7°C  -  Teich der Wetterzentrale Bad Schussenried: 5,6°C |  Schneehöhe Kreuzthal-Steinberg (930 m ü. NN): 8 cm   
01.04.2020Höhe
ü. NN
ZeitTemperatur (°C)Nieder-
schlag
Luft-
feuchte
Luft-
druck
Wind
StationaktuellMinimumMaximumaktuellMaximum
Aldingen654 m06:26-4,8-4,8 (07:35)-0,3 (16:02)0,0 l/m²80%1023,40,0 km/h (0 Bft) W29,6 km/h (5 Bft) W (14:48)
Allmendingen541 m06:25-6,3-6,3 (07:35)-2,1 (15:10)0,0 l/m²88%1023,34,8 km/h (1 Bft) NO35,4 km/h (5 Bft) O (15:35)
Altshausen574 m06:25-3,7-3,9 (05:14)-1,1 (00:16)0,0 l/m²67%1020,88,0 km/h (2 Bft) NO11,3 km/h (2 Bft) N (06:10)
Amstetten-Reutti663 m06:25-4,6-4,7 (06:15)-1,5 (16:55)0,0 l/m²86%1022,94,8 km/h (1 Bft) W-NW48,3 km/h (6 Bft) W (15:55)
Amtzell-Grenis677 m06:25-3,3-4,1 (06:05)-1,4 (00:00)0,0 l/m²62%1022,86,4 km/h (2 Bft) O-NO6,4 km/h (2 Bft) W-SW (00:00)
Aulendorf570 m06:25-3,0-3,0 (06:19)-0,5 (00:00)0,0 l/m²72%1021,76,4 km/h (2 Bft) N-NO14,5 km/h (3 Bft) O-NO (05:13)
Bad Krozingen233 m06:25-2,2-2,2 (06:25)3,7 (16:05)0,0 l/m²78%1023,35,2 km/h (1 Bft) S-SW38,1 km/h (5 Bft) N (17:05)
Bad Saulgau595 m06:25-5,1-5,1 (07:00)-1,9 (15:00)0,0 l/m²87%1021,50,0 km/h (0 Bft) S-SO25,7 km/h (4 Bft) S (11:35)
Bad Saulgau, Mannsgrab588 m06:23-4,7-6,1 (05:34)-1,7 (00:17)0,0 l/m²87%1024,00,0 km/h (0 Bft) N-NO0,0 km/h (0 Bft) N (00:00)
Bad Saulgau-Lampertsweiler627 m06:25-4,8-4,8 (06:15)0,2 (00:00)0,0 l/m²82%1024,68,0 km/h (2 Bft) N-NW22,5 km/h (4 Bft) N-NW (01:15)
Bad Schussenried572 m06:25-4,0-4,1 (06:25)-1,1 (00:00)0,0 l/m²87%1021,10,0 km/h (0 Bft) NO9,7 km/h (2 Bft) NO (03:15)
Bergatreute615 m01:45-0,7-0,7 (00:45)0,0 (00:00)0,0 l/m²77%1023,512,9 km/h (3 Bft) NO16,1 km/h (3 Bft) O-NO (01:40)
Biberach (Riss), Boehringer533 m06:30-4,3-4,4 (06:30)-1,1 (00:30)0,0 l/m²89%1021,94,3 km/h (1 Bft) N11,9 km/h (3 Bft) N (03:00)
Biberach (Riss), Realschule553 m06:25-3,9-3,9 (06:05)-0,3 (00:00)0,0 l/m²87%1023,612,9 km/h (3 Bft) N12,9 km/h (3 Bft) N (06:05)
Burgrieden523 m06:25-4,0-4,0 (06:20)-0,4 (00:00)0,0 l/m²82%1022,70,0 km/h (0 Bft) NO4,8 km/h (1 Bft) O-NO (02:50)
Burgrieden-Hochstetten510 m06:20-4,6-4,6 (07:00)-0,9 (15:40)0,0 l/m²89%1023,23,2 km/h (1 Bft) N-NO25,7 km/h (4 Bft) NO (12:55)
Ebersbach579 m06:25-3,8-3,8 (05:55)-0,1 (00:00)0,0 l/m²86%1023,09,7 km/h (2 Bft) N-NO16,1 km/h (3 Bft) NO (01:25)
Ebersbach-Boos605 m06:25-4,2-4,2 (05:55)-0,1 (00:00)0,0 l/m²88%1022,816,1 km/h (3 Bft) NO22,5 km/h (4 Bft) O (01:00)
Ebersbach-Menzenweiler661 m06:25-3,9-3,9 (06:20)-0,6 (00:00)0,0 l/m²88%1022,819,3 km/h (3 Bft) N-NO24,1 km/h (4 Bft) O-NO (01:05)
Ehingen535 m01:10-2,5-2,5 (01:10)-1,3 (00:05)0,0 l/m²70%1025,40,0 km/h (0 Bft) N-NO5,0 km/h (1 Bft) N-NO (00:15)
Erlenmoos645 m06:25-3,4-3,4 (06:25)-0,9 (00:00)0,0 l/m²86%1022,70,0 km/h (0 Bft) NO12,9 km/h (3 Bft) O-NO (01:35)
Ertingen569 m06:25-3,4-3,4 (06:00)-0,6 (00:00)0,0 l/m²84%1022,74,8 km/h (1 Bft) N16,1 km/h (3 Bft) N-NO (04:10)
Friedrichshafen405 m06:25-1,7-1,7 (07:00)0,9 (13:30)0,0 l/m²78%1022,512,9 km/h (3 Bft) NO27,4 km/h (4 Bft) NO (15:10)
Günzburg443 m06:25-4,7-4,8 (06:05)-1,1 (00:00)0,0 l/m²88%1020,80,0 km/h (0 Bft) NO0,0 km/h (0 Bft) NO (00:00)
Hochdorf-Appendorf537 m06:25-4,8-5,8 (06:05)-1,7 (00:15)0,0 l/m²67%1022,68,0 km/h (2 Bft) N14,5 km/h (3 Bft) N-NW (03:20)
Höchsten802 m06:25-4,0-4,0 (06:25)-1,4 (00:00)0,0 l/m²81%1020,416,1 km/h (3 Bft) N25,7 km/h (4 Bft) NO (02:45)
Horgenzell618 m06:25-1,9-1,9 (03:45)-0,6 (00:05)0,0 l/m²76%1020,04,8 km/h (1 Bft) N-NO19,3 km/h (3 Bft) N-NO (00:50)
Hoßkirch632 m06:25-6,6-6,6 (06:20)-1,0 (00:15)0,0 l/m²87%1021,64,8 km/h (1 Bft) O14,5 km/h (3 Bft) O-NO (00:20)
Isny, Am Dreifingerbach695 m06:25-6,2-6,2 (06:25)0,1 (01:00)0,0 l/m²83%1021,33,2 km/h (1 Bft) W14,5 km/h (3 Bft) O-NO (01:05)
Isny, Weidachweg706 m06:25-4,1-4,3 (06:20)0,3 (00:25)0,0 l/m²76%1023,70,0 km/h (0 Bft) W12,9 km/h (3 Bft) W (00:10)
Kappel-Grafenhausen163 m06:20-1,6-1,6 (07:00)3,3 (14:55)0,0 l/m²77%1021,24,8 km/h (1 Bft) N30,6 km/h (5 Bft) N-NO (16:55)
Kißlegg-Staibshof709 m06:25-3,3-3,3 (06:20)-0,9 (00:00)0,0 l/m²82%1022,48,0 km/h (2 Bft) NO14,5 km/h (3 Bft) O (01:50)
Kressbronn398 m06:26-2,2-2,2 (06:22)1,4 (00:00)0,0 l/m²76%1021,10,0 km/h (0 Bft) NO22,5 km/h (4 Bft) NO (00:54)
Kreuzthal-Steinberg-Alpe930 m06:20-4,5-4,8 (04:00)-2,5 (00:00)0,0 l/m²88%1022,02,2 km/h (1 Bft) W-SW22,0 km/h (4 Bft) W-NW (00:10)
Kreuzthal-Steinberggipfel1040 m06:20-3,6-4,0 (02:20)-3,1 (00:10)-74%1022,013,3 km/h (3 Bft) O37,1 km/h (5 Bft) O-SO (00:10)
Kristberg im Montafon (AT)1425 m06:25-6,4-6,6 (04:51)-5,3 (00:40)0,0 l/m²60%1026,21,8 km/h (1 Bft) N-NO10,1 km/h (2 Bft) NO (01:47)
Laupheim500 m06:25-3,9-3,9 (06:25)0,0 (00:00)0,0 l/m²82%1022,20,0 km/h (0 Bft) NO9,7 km/h (2 Bft) O-SO (00:20)
Leutkirch-Heggelbach670 m06:25-4,7-4,7 (06:20)-2,6 (00:30)0,0 l/m²87%1021,64,8 km/h (1 Bft) N-NO8,0 km/h (2 Bft) N-NO (03:30)
Lindau-Insel420 m06:25-1,3-1,3 (07:25)1,8 (14:55)0,0 l/m²73%1021,60,0 km/h (0 Bft) O-NO29,0 km/h (5 Bft) NO (17:05)
Lindau-Stadt412 m06:25-2,1-2,1 (07:25)1,2 (14:55)0,0 l/m²76%1021,73,2 km/h (1 Bft) NO33,8 km/h (5 Bft) N-NO (15:40)
Maierhöfen im Allgäu733 m06:25-3,7-3,7 (06:10)-1,2 (01:35)0,0 l/m²76%1021,84,8 km/h (1 Bft) NW25,7 km/h (4 Bft) O-SO (02:05)
Maselheim543 m06:25-5,0-5,0 (07:25)-2,3 (13:20)0,0 l/m²86%1023,14,8 km/h (1 Bft) N-NW24,1 km/h (4 Bft) O-NO (15:20)
Maselheim-Sulmingen548 m06:25-5,1-5,1 (07:05)-2,2 (15:15)0,0 l/m²89%1024,33,2 km/h (1 Bft) NW20,9 km/h (4 Bft) N-NO (12:15)
Mietingen-Baltringen528 m06:25-4,8-4,8 (06:25)-1,3 (00:45)0,0 l/m²86%1024,60,0 km/h (0 Bft) O-NO4,8 km/h (1 Bft) N-NO (01:20)
Mindelheim-Apfeltrach620 m06:26-5,7-5,7 (06:17)-2,7 (00:00)0,0 l/m²87%1024,00,0 km/h (0 Bft) NO0,0 km/h (0 Bft) O-NO (00:00)
Mittelbiberach577 m06:26-4,3-4,4 (06:08)-1,0 (00:16)0,0 l/m²84%1023,96,4 km/h (2 Bft) N12,8 km/h (3 Bft) NO (05:56)
Neresheim552 m06:01-6,8-6,8 (06:01)-2,0 (00:00)0,0 l/m²89%1021,70,0 km/h (0 Bft) O4,0 km/h (1 Bft) NO (01:00)
Neukirch570 m06:25-3,1-3,1 (07:05)-0,9 (14:35)0,0 l/m²81%1022,09,7 km/h (2 Bft) N-NO37,0 km/h (5 Bft) N-NO (11:55)
Ochsenhausen, Birkenstraße613 m06:25-5,3-5,3 (07:10)-2,2 (12:50)0,0 l/m²82%1023,11,6 km/h (1 Bft) NO3,2 km/h (1 Bft) S-SW (07:05)
Ochsenhausen, Unt. Wiesen575 m06:25-5,6-5,7 (06:15)-2,4 (00:00)0,0 l/m²89%1024,50,0 km/h (0 Bft) NO4,8 km/h (1 Bft) NO (00:00)
Opfenbach-Göritz561 m06:26-4,2-5,2 (05:22)-2,8 (00:00)0,0 l/m²74%1020,00,0 km/h (0 Bft) N-NO6,5 km/h (2 Bft) O-NO (00:18)
Ostrach619 m06:25-3,8-3,8 (04:15)-0,6 (00:00)0,0 l/m²89%1021,16,4 km/h (2 Bft) NW8,0 km/h (2 Bft) N-NW (04:40)
Ravensburg, Goethestraße428 m06:25-1,8-1,8 (06:20)1,3 (00:00)0,0 l/m²80%1021,814,5 km/h (3 Bft) NO16,1 km/h (3 Bft) O-NO (06:15)
Ravensburg-Wernsreute511 m06:25-3,2-3,2 (06:25)0,0 (15:50)0,0 l/m²82%1024,417,7 km/h (3 Bft) N35,4 km/h (5 Bft) N-NO (11:45)
Reichenbach an der Fils343 m06:25-2,1-2,1 (06:20)1,0 (00:00)0,0 l/m²77%1025,50,0 km/h (0 Bft) SO12,9 km/h (3 Bft) O-SO (05:10)
Riedlingen530 m06:25-3,3-3,3 (06:20)-1,0 (00:00)0,0 l/m²82%1023,00,0 km/h (0 Bft) O-NO0,0 km/h (0 Bft) N (00:00)
Rißtissen489 m06:25-3,2-3,2 (06:25)-0,2 (00:00)0,0 l/m²85%1020,60,0 km/h (0 Bft) O-NO8,0 km/h (2 Bft) O-NO (03:30)
Rottweil-Hausen681 m06:23-4,2-4,4 (05:57)-1,9 (00:00)0,0 l/m²82%1023,94,7 km/h (1 Bft) N-NW6,5 km/h (2 Bft) N (02:14)
Schemmerhofen520 m06:252,72,7 (00:00)2,7 (00:00)0,0 l/m²55%1021,80,0 km/h (0 Bft) NO0,0 km/h (0 Bft) NO (00:00)
Silbertal im Montafon (AT)884 m06:26-4,4-4,4 (06:14)-1,6 (00:01)0,0 l/m²85%1026,00,0 km/h (0 Bft) O-NO0,0 km/h (0 Bft) O-NO (00:00)
Tettnang466 m06:24-1,5-1,5 (06:21)1,0 (00:00)0,0 l/m²72%1021,74,7 km/h (1 Bft) O-NO16,2 km/h (3 Bft) O-SO (01:07)
Tuttlingen648 m06:16-4,1-4,3 (05:41)-2,1 (00:01)0,0 l/m²76%1023,50,0 km/h (0 Bft) N-NO5,2 km/h (1 Bft) W-SW (03:26)
Tuttlingen, Möhringer-Vorstadt711 m06:25-4,3-4,5 (07:10)-2,4 (16:05)0,0 l/m²82%1022,60,0 km/h (0 Bft) O-NO25,7 km/h (4 Bft) N-NW (12:35)
Ummendorf547 m06:25-4,3-4,5 (06:10)-0,7 (00:10)0,0 l/m²69%1023,90,0 km/h (0 Bft) O-NO16,1 km/h (3 Bft) O (01:05)
Ummendorf-Fischbach558 m06:25-5,2-5,4 (06:15)-1,9 (01:25)0,0 l/m²70%1023,70,0 km/h (0 Bft) O4,8 km/h (1 Bft) O (04:20)
Waldburg707 m06:25-3,2-3,2 (06:15)-0,8 (00:00)0,0 l/m²80%1021,49,7 km/h (2 Bft) N19,3 km/h (3 Bft) N (02:35)
Waltenhofen im Allgäu720 m06:20-7,3-7,3 (06:15)-2,2 (01:05)0,0 l/m²90%1022,50,0 km/h (0 Bft) W17,7 km/h (3 Bft) W (11:50)
Wangen, Südring548 m06:25-4,0-4,0 (06:18)-0,3 (00:00)0,0 l/m²84%1021,63,2 km/h (1 Bft) O-NO13,0 km/h (3 Bft) NO (01:25)
Warthausen-Birkenhard581 m06:24-4,3-4,3 (05:35)-1,2 (00:00)0,0 l/m²86%1023,411,9 km/h (3 Bft) N13,7 km/h (3 Bft) NO (06:13)
Winterlingen785 m06:15-5,6-5,6 (06:15)-2,8 (01:00)0,0 l/m²84%1022,51,1 km/h (1 Bft) N3,6 km/h (1 Bft) NO (00:55)

niederschlagsdatenbank | info | login - erfassung

Sollten Sie Interesse haben, an der Niederschlagsdatenbank teilzunehmen, finden Sie > hier < weitere Informationen.
Datum: . . Kalender
Anmerkung:0,0 = nicht messbarer Niederschlag
 -  = kein Niederschlag
 k  = kumulierter Niederschlag

< 10.06.201912.06.2019 >


Niederschlagswerte vom 11.06.2019    -    derzeit 112 Stationen

Die Niederschlagswerte des gewählten Tages lassen sich durch Klicken auf das Datum sortieren.
Die Angaben sind in l/m².

Station08.06.09.06.10.06.11.06.12.06.13.06.14.06.Bemerkung 11.06.
Aichstetten Ulmenstraße 7-------
Aichstetten-Nestbaum Nestbaum--19,0-1,0--
Albbruck Furmisstr. 18-6,228,81,8---
Bewölkt mit Aufhellungen ´19°C Nachts +11°C Am Morgen zum Mittwo [weiterlesen...]
Regen Nieselregen
Allmendingen Querqueviller Ring 6-3,727,01,21,5--
Regen
Amstetten-Reutti Gassenäcker 13-0,828,20,22,2--
Regen
Aulendorf Steinenbacher Weg 33-2,524,02,51,8-0,0
Ablesung um 7 Uhr bei leichtem Getröpfel
Regen
Aulendorf-Blönried Heuweg 32--27,53,2--0,0
Bad Bellingen Rheinstraße 76-------
Bad Buchau Hanfweiher 1-6,028,55,02,0--
Bad Saulgau Walserweg-3,532,52,54,5--
Regen
Bad Saulgau-Hochberg Lampertsweiler Straße 12-2,536,51,8--0,0
Bad Schussenried Konradstraße-1,722,81,91,0-0,3
Regen
Bad Schussenried Lortzingstrasse-2,022,02,51,5--
Regen
Bad Schussenried Klosterstraße-1,225,52,52,0--
Regen
Bad Schussenried Theodor-Storm-Strasse-----31,8-
Bad Schussenried-Hopferbach Unterer Öschweg 16/1-3,028,03,01,7--
Regen
Bad Schussenried-Lufthütte Hauptgasse 17-1,023,02,02,0--
Bad Schussenried-Sattenbeuren Ortsstraße 7-------
Bad Schussenried-Schwaigfurt Schwaigfurt 2-2,021,5-1,0--
Bad Waldsee-Haisterkirch Zur Spitzenkapelle 1-0,720,5----
+11/+18°C, kühl, bis 11:00 sonnig, dann überwiegend wolkig
Bad Wurzach-Seibranz Kimpflerhof 2 -1,718,01,01,0--
Baienfurt Untere Bergstrasse 7-1,021,05,03,0--
Regen
Balzheim Hinterm Liess 19-1,021,02,0---
Regen
Berg-Kleintobel Kleintobel-1,326,74,7--1,2
Regen
Biberach Amriswilstrasse-2,026,10,01,0-0,0
Regen
Biberach Strölinweg-2,0--3,0--
Biberach Erlenweg-2,019,0----
Biberach Neue Heimat 5-2,518,02,01,5--
Regen
Biberach Mittelbergstraße 9-1,520,0-1,0--
Biberach Auf dem Lindele-------
Biberach-Bergerhausen Löcherstr.1-1,519,50,50,5--
Bierstetten Schloßbühl 6-2,329,32,32,0--
Blaubeuren-Pappelau Sotzenhauserstr.7-2,028,01,02,0--
Bühlertal Wolfinstraße 16--9,023,08,0--
Regen
Dettingen a. d. Iller Schleifweg 4-------
Dornstadt-Tomerdingen Maienweg 9-0,639,0-3,0--
Dürnau Dorfäckerweg 5-4,037,02,02,0--
Regen
Eberhardzell Lilienweg-1,018,91,2---
Nieselregen
Ebersbach-Roßwälden Appenwiesen-1,418,51,07,10,0-
Tagsüber bedeckt und trocken. Gegen morgen etwas Regen. 12,5 bis [weiterlesen...]
Regen
Ehingen Rosenstraße-2,027,80,81,2--
Regen
Ehingen Zanderstraße-2,032,3-1,5--
Ehingen Schlaufenbühl0,32,431,60,61,8--
Regen
Ehingen Schillerstraße-2,929,51,71,7--
Regen
Ehingen-Herbertshofen Tobelweg 9-------
Eislingen Albstraße 125-1,625,10,25,0--
Regen
Erbach-Bach Hauptstraße 24-3,026,00,03,0--
Regen
Erlenmoos Haldenweg 15-0,822,30,40,8--
Regen
Füramoos Hungersberg 1-0,08,212,40,00,00,0
Gutenzell Kleinser Berg 1-0,115,07,0---
Gutenzell-Hürbel Bei der Sägmühle 1--20,51,01,3--
Regen
Herbertingen Drosselweg-5,039,54,05,0--
Bei Temperaturen knapp über 15 Grad war der Dienstag trocken.Erst am [weiterlesen...]
Regen Nieselregen
Herbertingen Hirschstrasse-9,029,05,05,0--
Regen Nieselregen
Hochdorf-Schweinhausen Lindenweg 2-1,720,30,71,3--
Hohentengen-Bremen Bremer Halde 4-7,533,05,03,5--
Regen
Horgenzell-Ringgenweiler Ringgenweiler 620-2,422,46,25,0-0,9
Regen
Hüttisheim Ulmer Weg 20,02,522,51,02,0--
Regen
Illerkirchberg Mahdauweg 20-2,722,80,22,5--
Regen
Illerrieden-Wangen Am Muckenberg 12-0,521,51,01,5--
Immenstaad Stockwiesen 10-------
Inzigkofen Butzenweg 1-3,027,57,55,5--
Regen
Isny Am Dreifingerbach 39-5,622,21,40,4--
Regen
Kirchberg Rosenstr. 7-1,022,5-2,0--
Kreuzthal-Steinberg-Alpe Im Kreuzbachthal 85-5,726,61,80,4--
Regen Nieselregen
Langenau Wasserstr. 54-1-2,019,01,03,5--
Langenenslingen Schattenweiler Str. 18-2,927,53,64,00,00,0
Regen Bodennebel
Leutkirch Unterer Auenweg 25-1,317,00,20,1--
Regen
Leutkirch Nachtigallenweg 28-2,521,01,01,0--
Leutkirch-Adrazhofen Bergstraße 2023,03,020,01,0---
Merklingen Millergasse 9-------
Mietingen Seerosenweg 10-3,018,04,01,5--
Regen
Mietingen-Walpertshofen Bussenweg 31-4,019,02,02,0--
Mittelbiberach-Reute Rindenmooser Straße 2-1,522,21,51,8-0,1
Regen
Moosburg Käserweg 5-4,542,02,22,5--
Tagsüber teils heiter, teils wolkig, kühl. Regen in der Nacht.
Regen
Münsingen-Rietheim In der Lise 20-2,021,42,65,2--
Regen
Neresheim Alfred-Delp-Straße 8-0,012,60,08,7--
RRtr
Oberdischingen Normannenstraße 7-2,724,80,41,3--
Ochsenhausen Ehrensberger Weg 5-0,120,50,10,4--
Regen
Öpfingen Hauptstraße 99-3,029,00,51,1--
Regen
Ostrach Uhlandweg-2,540,05,05,0-0,0
Regen
Pfaffenhofen-Kadeltshofen Mühlbachstraße 4-3,022,00,05,0--
Pfullendorf Am Schweizersbild --42,94,6---
Rangendingen Donaustraße 19-2,034,0--6,0-
Ravensburg Bleicherstraße-1,826,55,12,9-1,4
Ravensburg-Schmalegg St.-Magdalena-Ring 42-1,125,04,91,0--
Nieselregen
Ravensburg-Wernsreute Wernsreute 25--25,48,48,4-0,6
Regen
Ravensburg-Weststadt Karl-Erb-Ring 142-2,328,28,03,1-1,8
Regen
Regensburg Orleansstraße 3-------
Riedhausen Blütenweg 13-3,646,88,86,8-0,2
Temp. +12,7°C / +18,8°C, Windböen O 25,7 km/h
Regen
Riedlingen Berliner Str. 41-2,333,01,05,5--
Regen
Riedlingen-Neufra Panoramaweg--30,04,0---
Regen Nieselregen
Riedlingen-Neufra Riedlinger Strasse0,03,830,02,83,00,00,0
+ 14,7 Grad, 95 % LF, leichter Regen
Schelklingen-Gundershofen Schwarzer-Straße 14-2,033,01,53,0--
Temp. zw. +9,8°C und +24,3°C. Meist viele Wolken, kühl. Nachts leic [weiterlesen...]
Schemmerberg Drosselweg 9-4,021,2-1,5--
Schwörstadt Schulstrasse 193,68,824,02,60,6--
Regen
Seekirch Haldenberg 7-4,029,03,03,0--
Regen
Sigmaringendorf Weingartenstraße 7-2,129,02,85,0--
Regen
Tuttlingen Möhringerstraße 11-2,841,2----
Ulm Eberhardtstraße 75-3,221,50,82,9--
Ummendorf Tulpenweg-1,522,00,50,8--
Regen
Ummendorf Friedrich-Schiller-Str.0,00,220,00,00,0--
Regen
Uttenweiler-Ahlen Seekircher Straße 8-3,228,51,5---
Regen
Vöhringen (Schwarzwald) Drosselweg 3-4,045,08,0---
Waldburg Kastanienweg11-1,0----17,5
Wangen-Bergerhöhe Berg 2-1,623,02,82,0--
Warthausen An der Schloßhalde -3,316,70,01,8--
Regen
Warthausen Schwabenwiesen -2,17,812,00,7--
Regen
Warthausen-Barabein Barabein 20-4,018,01,02,0--
Regen
Weingarten Laurastraße-0,222,01,06,0-1,0
+ 14,1° C um 5.00 Uhr, 958 hPa
Regen Nieselregen
Weingarten Hoyerstraße-------
Weingarten Marienstraße-0,524,55,03,0-2,0
Regen
Wolfegg-Veesers Veesers 1-1,821,5-1,0--
Wolpertswende Aulendorfer Str. 17-1,222,92,71,8--
Regen

Stillgelegte Niederschlagsstationen    -    derzeit 49 Stationen

StationLetzte Meldung08.06.09.06.10.06.11.06.12.06.13.06.14.06.Bemerkung 11.06.
Allmannsweiler Eggatsweilerstr.2802.09.2014-------
Aulendorf-Rugetsweiler Erikaweg 325.07.2013-------
Aulendorf-Zollenreute Imterstraße 1209.02.2019-------
Bad Saulgau Willi-Burth-Straße19.09.2011-------
Bad Saulgau Eichendorffweg28.03.2013-------
Bad Saulgau Seewattenstraße 12815.01.2014-------
Bad Saulgau-Lampertsweiler Valentinstr. 2618.02.2015-------
Bad Schussenried-Steinhausen Drosselgasse 4/126.09.2012-------
Bad Waldsee-Michelwinnanden Michelberg 531.12.2014-------
Bad Waldsee-Osterhofen Hochwaldgasse 406.03.2015-------
Bad Waldsee-Steinach Hofraingasse 1510.11.2013-------
Bad Wurzach-Dietmanns Postweg 519.01.2019-------
Bad Wurzach-Haidgau Wengener Straße 507.10.2012-------
Bad Wurzach-Ziegelbach Ziegelbach-Greut 507.11.2014-------
Bergatreute Bolanden 113.02.2012-------
Betzenweiler Offinger Straße 505.01.2017-------
Burgrieden Am Nonnenberg 328.10.2013-------
Burgrieden-Rot Schmiedgasse 518.09.2013-------
Eberhardzell Schillerstraße05.07.2010-------
Ehingen Am Elzengraben17.06.2016-------
Gammertingen Schillerstraße 2216.01.2016-------
Griesingen Blumenstraße 906.10.2015-------
Günzburg Erlenbadweg 34 1/231.12.2010-------
Hoßkirch Kirchstraße 805.01.2018-------
Ingoldingen-Grodt Ingoldinger Weg 1919.11.2016-------
Kisslegg Kirchmoosstraße02.05.2011-------
Krauchenwies-Hausen Rosenrain 123.11.2013-------
Kressbronn Irisstraße 410.03.2010-------
Leutkirch-Ottmannshofen Spitalriedstraße 527.07.2012-------
Leutkirch-Rotis Rotis 5/208.05.2016-------
Leutkirch-Wuchzenhofen Untere Kirchstraße 18/119.09.2016-------
Mietingen Hangweg 1530.12.2017-------
Mössingen-Bästenhardt Weissdornweg 721.07.2014-------
Ostrach Heiligenberger Straße19.08.2013-------
Pfullendorf Ringstraße 18.03.2012-------
Ravensburg Olgastraße30.10.2016-------
Seltmans Amselweg 2209.04.2013-------
Stuttgart-Bad Cannstatt Beuthener Str. 6703.02.2013-------
Stuttgart-Möhringen Glashütter Weg 1023.04.2017-------
Stuttgart-Rohr Hirschsprung 307.11.2012-------
Talheim Im Schecken 2121.08.2016-------
Tannheim Eggmannstr. 42 22.10.2017-------
Tettnang-Ramsbach Jahnstr. 24/126.03.2011-------
Tuttlingen-Möhringen Belchenstraße01.01.2015-------
Ummendorf Bergstraße23.10.2017-------
Vogt Mühlwies 1822.05.2015-------
Wangen-Atzenberg Keplerweg 324.02.2019-------
Weingarten Bischof-Sproll-Straße30.06.2011-------
Wilhelmsdorf Riedhauser Straße 28.10.2012-------
Wilhelmsdorf Seefeld20.08.2013-------
Wurmlingen An der Steig 3014.10.2016-------
Die Niederschlagswerte des gewählten Tages lassen sich durch Klicken auf das Datum sortieren.
Die Angaben sind in l/m².

Wetterbeobachtungen Legende:

  • Regen
  • Nieselregen
  • Schneeregen
  • Schnee
  • Graupel
  • Eiskörner
  • Hagel
  • Bodennebel
  • Gewitter
  • Nebelnässe
  • Schneegriesel

Grafische Darstellung der Tagesniederschläge vom 11.06.2019

< 10.06.201912.06.2019 >Monats- und Jahresniederschlag


 
wetterstationen
wetterstationen
- derzeit 83 Stationen
niederschlagsdatenbank
wetterstationen
- kartographische Darstellung
niederschlagsdatenbank
niederschlagsstationen
- derzeit 112 Stationen
niederschlagsdatenbank
niederschlagsstationen
- kartographische Darstellung
 
  treffpunkt & service
--- Anzeigen --------------------------------
zugriffe:
insgesamt: 46.623.306
aktueller monat: 495
heute: 495
momentan online: 32
 
 
monatshöchstwert: 653.625
vorheriger monat: 364.213
gestern: 13.565
tageshöchstwert: 57.073
 
wetterwarte süd
 
konradstraße 3
info@wetterwarte-sued.com
roland roth
 
88427 bad schussenried